Simultaneous Nadir Overpasses (SNOs) Predictions

Prediction of SNOs between NOAA-20 and NOAA-19 Satellite Orbit:

Table of predicted SNOs for the next 14.0 days since TLE Epoch: 5/4/2024
Index Date (NOAA-20) Time (NOAA-20) Lat,Lon (NOAA-20) SZA (NOAA-20 ) Date (NOAA-19) Time (NOAA-19) Lat,Lon (NOAA-19) SZA (NOAA-19 ) Distance(km) Time Diff (sec)
1 05/09/2024 23:29:36 -72.97, -0.94 124.65 05/09/2024 23:28:27 -72.96, -2.88 124.54 63.13 69
2 05/10/2024 00:20:27 73.25, 165.77 55.65 05/10/2024 00:19:14 73.26, 165.09 55.72 21.98 73
3 05/10/2024 01:11:15 -73.43, -27.33 124.16 05/10/2024 01:10:16 -73.41, -27.34 124.17 2.42 59
4 05/10/2024 02:02:00 73.41, 140.04 55.81 05/10/2024 02:01:09 73.41, 139.96 55.83 2.62 51
5 05/10/2024 02:52:45 -73.44, -52.73 124.17 05/10/2024 02:52:13 -73.46, -52.70 124.14 2.64 32
6 05/10/2024 03:43:31 73.47, 114.52 55.86 05/10/2024 03:43:06 73.47, 114.59 55.86 2.26 25
7 05/10/2024 04:34:15 -73.45, -78.12 124.17 05/10/2024 04:34:11 -73.47, -78.17 124.15 2.45 4
8 05/10/2024 05:25:01 73.48, 89.12 55.85 05/10/2024 05:25:04 73.47, 89.12 55.85 0.71 3
9 05/10/2024 06:15:46 -73.51,-103.64 124.13 05/10/2024 06:16:08 -73.52,-103.53 124.12 3.51 22
10 05/10/2024 07:06:31 73.49, 63.73 55.85 05/10/2024 07:07:02 73.48, 63.64 55.83 3.03 31
11 05/10/2024 07:57:16 -73.52,-129.03 124.13 05/10/2024 07:58:06 -73.53,-129.01 124.14 1.06 50
12 05/10/2024 08:48:02 73.55, 38.21 55.89 05/10/2024 08:48:59 73.53, 38.28 55.86 2.91 57
13 05/10/2024 09:38:49 -73.68,-154.78 123.97 05/10/2024 09:40:02 -73.63,-154.25 124.07 17.52 73
14 05/10/2024 10:29:40 73.96, 11.87 56.33 05/10/2024 10:30:49 73.93, 13.77 56.19 58.54 69



Historial Predications of SNOs between NOAA-20 and NOAA-19
